FW2508 Weather Reports


time (UTC)temp
C
wind
direction
speed
KPH
gust
KPH
rain 1hr
cm
rain 24hr
cm
rain mn
cm
humidity
%
barometer
mb
20260906214617 32 103 6.4 16.1 0.00 0.00 0.00 39 1015.9
20260906214100 31 111 3.2 16.1 0.00 0.00 0.00 41 1016.0
20260906213603 31 122 6.4 16.1 0.00 0.00 0.00 40 1016.1
20260906213102 31 44 8.0 11.3 0.00 0.00 0.00 40 1016.2
20260906212601 31 37 3.2 14.5 0.00 0.00 0.00 41 1016.3
20260906212101 31 30 8.0 14.5 0.00 0.00 0.00 40 1016.3
20260906211601 31 84 4.8 12.9 0.00 0.00 0.00 40 1016.5
20260906211103 31 37 8.0 17.7 0.00 0.00 0.00 40 1016.6
20260906210601 31 48 8.0 17.7 0.00 0.00 0.00 42 1016.7
20260906210113 31 127 6.4 17.7 0.00 0.00 0.00 40 1016.8
20260906205605 31 124 6.4 17.7 0.00 0.00 0.00 41 1016.8
20260906205059 32 144 8.0 17.7 0.00 0.00 0.00 40 1016.8
20260906204604 31 0 1.6 8.0 0.00 0.00 0.00 39 1017.0
20260906204102 31 76 4.8 11.3 0.00 0.00 0.00 40 1017.0
20260906203600 31 93 3.2 11.3 0.00 0.00 0.00 40 1017.0
20260906203101 31 130 1.6 12.9 0.00 0.00 0.00 42 1017.0
20260906202600 31 138 4.8 12.9 0.00 0.00 0.00 41 1017.1
20260906202100 31 54 6.4 12.9 0.00 0.00 0.00 40 1017.2
20260906201636 31 169 3.2 12.9 0.00 0.00 0.00 39 1017.3
20260906201101 30 167 4.8 14.5 0.00 0.00 0.00 41 1017.3
20260906200600 30 133 6.4 14.5 0.00 0.00 0.00 40 1017.4
20260906200105 30 70 6.4 14.5 0.00 0.00 0.00 44 1017.4
20260906195559 30 74 6.4 16.1 0.00 0.00 0.00 45 1017.4
20260906195100 30 0 8.0 16.1 0.00 0.00 0.00 44 1017.5
20260906194609 30 51 3.2 11.3 0.00 0.00 0.00 44 1017.5
20260906194100 30 96 6.4 11.3 0.00 0.00 0.00 46 1017.6
20260906193559 30 70 1.6 11.3 0.00 0.00 0.00 46 1017.6
20260906193102 30 41 3.2 11.3 0.00 0.00 0.00 43 1017.6
20260906192559 29 352 3.2 16.1 0.00 0.00 0.00 45 1017.8
20260906192100 29 38 6.4 16.1 0.00 0.00 0.00 45 1017.9
20260906191612 28 24 6.4 16.1 0.00 0.00 0.00 45 1017.9
20260906191101 28 18 6.4 12.9 0.00 0.00 0.00 46 1018.1
20260906190604 29 82 6.4 12.9 0.00 0.00 0.00 48 1018.1
20260906190105 28 15 1.6 12.9 0.00 0.00 0.00 46 1018.1
20260906185602 28 53 3.2 16.1 0.00 0.00 0.00 47 1018.2
20260906185100 28 0 8.0 16.1 0.00 0.00 0.00 48 1018.3
20260906184606 28 60 8.0 16.1 0.00 0.00 0.00 48 1018.4
20260906184100 28 44 4.8 12.9 0.00 0.00 0.00 52 1018.5
20260906183559 28 53 1.6 11.3 0.00 0.00 0.00 52 1018.6
20260906183106 28 49 6.4 11.3 0.00 0.00 0.00 51 1018.7
20260906182603 28 40 1.6 9.7 0.00 0.00 0.00 53 1018.8
20260906182106 28 7 3.2 9.7 0.00 0.00 0.00 53 1018.9
20260906181633 28 129 0.0 6.4 0.00 0.00 0.00 54 1019.2
20260906181100 27 140 1.6 9.7 0.00 0.00 0.00 55 1019.3
20260906180600 27 36 0.0 9.7 0.00 0.00 0.00 56 1019.4
20260906180108 27 27 1.6 9.7 0.00 0.00 0.00 58 1019.4
20260906175600 26 96 1.6 9.7 0.00 0.00 0.00 58 1019.5
20260906175101 26 164 1.6 6.4 0.00 0.00 0.00 58 1019.6
20260906174611 26 31 0.0 6.4 0.00 0.00 0.00 59 1019.8
20260906174059 26 0 0.0 6.4 0.00 0.00 0.00 59 1019.9
20260906173602 26 0 1.6 6.4 0.00 0.00 0.00 58 1020.0
20260906173106 26 39 1.6 4.8 0.00 0.00 0.00 60 1020.0
20260906172604 26 0 0.0 4.8 0.00 0.00 0.00 61 1020.1
20260906172103 25 213 1.6 6.4 0.00 0.00 0.00 63 1020.1
20260906171601 25 95 1.6 6.4 0.00 0.00 0.00 64 1020.2
20260906171100 25 283 3.2 11.3 0.00 0.00 0.00 64 1020.2
20260906170600 24 281 1.6 11.3 0.00 0.00 0.00 65 1020.3
20260906170118 25 29 1.6 6.4 0.00 0.00 0.00 64 1020.3
20260906165600 24 0 1.6 6.4 0.00 0.00 0.00 65 1020.4
20260906165100 23 0 1.6 6.4 0.00 0.00 0.00 68 1020.6
20260906164604 23 23 1.6 6.4 0.00 0.00 0.00 68 1020.6
20260906164100 23 0 0.0 6.4 0.00 0.00 0.00 69 1020.5
20260906163603 23 302 1.6 6.4 0.00 0.00 0.00 70 1020.5
20260906163109 22 0 1.6 8.0 0.00 0.00 0.00 71 1020.5
20260906162557 22 30 1.6 8.0 0.00 0.00 0.00 71 1020.6
20260906162104 22 21 0.0 9.7 0.00 0.00 0.00 73 1020.5
20260906161611 22 0 1.6 9.7 0.00 0.00 0.00 75 1020.5
20260906161100 21 39 1.6 8.0 0.00 0.00 0.00 75 1020.5
20260906160559 21 55 1.6 8.0 0.00 0.00 0.00 75 1020.6
20260906160110 21 25 3.2 8.0 0.00 0.00 0.00 75 1020.6
20260906155600 21 296 1.6 6.4 0.00 0.00 0.00 76 1020.8
20260906155104 21 34 1.6 4.8 0.00 0.00 0.00 77 1020.7
20260906154605 21 0 0.0 4.8 0.00 0.00 0.00 78 1020.6
20260906154057 20 303 1.6 4.8 0.00 0.00 0.00 79 1020.6
20260906153600 20 304 0.0 4.8 0.00 0.00 0.00 79 1020.6
20260906153114 20 0 0.0 4.8 0.00 0.00 0.00 79 1020.7
20260906152600 20 0 0.0 3.2 0.00 0.00 0.00 80 1020.8
20260906152100 20 314 0.0 3.2 0.00 0.00 0.00 80 1020.7
20260906151608 20 0 0.0 3.2 0.00 0.00 0.00 81 1020.7
20260906151100 20 0 0.0 1.6 0.00 0.00 0.00 82 1020.8
20260906150602 19 0 0.0 4.8 0.00 0.00 0.00 82 1020.9
20260906145601 20 0 0.0 9.7 0.00 0.00 0.00 81 1020.8
20260906145100 19 304 1.6 9.7 0.00 0.00 0.00 83 1020.7
20260906144602 19 0 0.0 3.2 0.00 0.00 0.00 84 1020.7
20260906144059 18 0 0.0 3.2 0.00 0.00 0.00 85 1020.8
20260906143601 18 0 0.0 4.8 0.00 0.00 0.00 85 1020.8
20260906143105 18 0 0.0 4.8 0.00 0.00 0.00 86 1020.7
20260906142559 18 0 0.0 1.6 0.00 0.00 0.00 86 1020.8
20260906142101 18 0 0.0 1.6 0.00 0.00 0.00 86 1020.9
20260906141604 18 0 0.0 1.6 0.00 0.00 0.00 87 1020.8
20260906141100 17 0 0.0 1.6 0.00 0.00 0.00 88 1020.8
20260906140600 17 0 0.0 0.0 0.00 0.00 0.00 88 1020.8
20260906140108 17 0 0.0 0.0 0.00 0.00 0.00 89 1020.8
20260906135600 17 0 0.0 3.2 0.00 0.00 0.00 90 1020.6
20260906135100 17 0 0.0 3.2 0.00 0.00 0.00 90 1020.6
20260906134618 16 318 0.0 3.2 0.00 0.00 0.00 91 1020.6
20260906134100 16 0 0.0 0.0 0.00 0.00 0.00 91 1020.5
20260906133559 16 0 0.0 3.2 0.00 0.00 0.00 92 1020.5
20260906133113 16 0 0.0 3.2 0.00 0.00 0.00 93 1020.5
20260906132600 16 0 0.0 0.0 0.00 0.00 0.00 93 1020.5
20260906132103 15 0 0.0 0.0 0.00 0.00 0.00 94 1020.5
20260906131606 15 0 0.0 0.0 0.00 0.00 0.00 94 1020.3
20260906131100 15 0 0.0 0.0 0.00 0.00 0.00 94 1020.3
20260906130559 15 0 0.0 0.0 0.00 0.00 0.00 95 1020.2
20260906130113 15 0 0.0 0.0 0.00 0.00 0.00 95 1020.1
20260906125600 14 0 0.0 0.0 0.00 0.00 0.00 96 1020.0
20260906125102 14 0 0.0 0.0 0.00 0.00 0.00 96 1020.1
20260906124605 14 0 0.0 0.0 0.00 0.00 0.00 96 1020.1
20260906124100 13 0 0.0 0.0 0.00 0.00 0.00 95 1020.2
20260906123559 13 0 0.0 0.0 0.00 0.00 0.00 95 1020.3
20260906123102 13 0 0.0 0.0 0.00 0.00 0.00 95 1020.3
20260906122600 13 0 0.0 0.0 0.00 0.00 0.00 95 1020.1
20260906122057 13 0 0.0 0.0 0.00 0.00 0.00 94 1020.1
20260906121613 13 0 0.0 0.0 0.00 0.00 0.00 94 1020.1
20260906121100 13 0 0.0 0.0 0.00 0.00 0.00 94 1020.0
20260906120600 13 0 0.0 0.0 0.00 0.00 0.00 94 1020.0
20260906120101 14 0 0.0 0.0 0.00 0.00 0.00 94 1020.1
20260906115601 14 0 0.0 0.0 0.00 0.00 0.00 94 1020.3
20260906115100 14 0 0.0 0.0 0.00 0.00 0.00 94 1020.3
20260906114620 14 0 0.0 0.0 0.00 0.00 0.00 94 1020.2
20260906114100 14 0 0.0 0.0 0.00 0.00 0.00 94 1020.1
20260906113600 14 0 0.0 0.0 0.00 0.00 0.00 93 1020.0
20260906113114 14 0 0.0 0.0 0.00 0.00 0.00 93 1020.0
20260906112603 14 0 0.0 0.0 0.00 0.00 0.00 93 1019.9
20260906112100 15 0 0.0 0.0 0.00 0.00 0.00 94 1019.8
20260906111603 14 0 0.0 0.0 0.00 0.00 0.00 94 1019.9
20260906111100 14 0 0.0 0.0 0.00 0.00 0.00 94 1019.9
20260906110557 14 0 0.0 0.0 0.00 0.00 0.00 94 1019.7
20260906110101 14 0 0.0 0.0 0.00 0.00 0.00 93 1019.6
20260906105601 13 0 0.0 0.0 0.00 0.00 0.00 90 1019.6
20260906105101 14 0 0.0 0.0 0.00 0.00 0.00 90 1019.7
20260906104604 15 0 0.0 0.0 0.00 0.00 0.00 92 1019.7
20260906104100 15 0 0.0 0.0 0.00 0.00 0.00 91 1019.7
20260906103601 15 0 0.0 0.0 0.00 0.00 0.00 91 1019.8
20260906103102 15 0 0.0 0.0 0.00 0.00 0.00 91 1019.7
20260906102559 15 0 0.0 0.0 0.00 0.00 0.00 90 1019.7
20260906102101 15 0 0.0 0.0 0.00 0.00 0.00 90 1019.6
20260906101605 15 0 0.0 0.0 0.00 0.00 0.00 90 1019.6
20260906101057 15 0 0.0 3.2 0.00 0.00 0.00 90 1019.7
20260906100557 16 0 0.0 3.2 0.00 0.00 0.00 89 1019.7
20260906100106 16 0 0.0 1.6 0.00 0.00 0.00 89 1019.6
20260906095600 16 0 0.0 1.6 0.00 0.00 0.00 89 1019.8
20260906095100 16 0 0.0 4.8 0.00 0.00 0.00 89 1019.7
20260906094612 16 0 0.0 4.8 0.00 0.00 0.00 88 1019.5
20260906094059 16 70 0.0 4.8 0.00 0.00 0.00 88 1019.6
20260906093559 16 0 1.6 4.8 0.00 0.00 0.00 88 1019.7
20260906093108 16 74 0.0 9.7 0.00 0.00 0.00 87 1019.7
20260906092559 16 76 1.6 12.9 0.00 0.00 0.00 87 1019.6
20260906092057 17 72 8.0 12.9 0.00 0.00 0.00 87 1019.4
20260906091621 17 77 8.0 12.9 0.00 0.00 0.00 86 1019.4
20260906091101 17 77 8.0 16.1 0.00 0.00 0.00 86 1019.4
20260906090600 17 68 9.7 16.1 0.00 0.00 0.00 85 1019.3
20260906090120 17 84 8.0 11.3 0.00 0.00 0.00 85 1019.2
20260906085600 17 75 6.4 11.3 0.00 0.00 0.00 85 1019.2
20260906085059 17 56 6.4 11.3 0.00 0.00 0.00 84 1019.1
20260906084625 17 70 6.4 11.3 0.00 0.00 0.00 83 1018.9
20260906084100 17 45 6.4 12.9 0.00 0.00 0.00 82 1018.9
20260906083559 17 42 8.0 12.9 0.00 0.00 0.00 81 1018.8
20260906083107 18 28 8.0 12.9 0.00 0.00 0.00 81 1018.8
20260906082557 18 11 4.8 9.7 0.00 0.00 0.00 80 1018.9
20260906082100 17 34 1.6 9.7 0.00 0.00 0.00 79 1018.8
20260906081603 17 0 0.0 6.4 0.00 0.00 0.00 79 1018.8
20260906081100 17 354 1.6 6.4 0.00 0.00 0.00 78 1018.9
20260906080600 17 0 0.0 1.6 0.00 0.00 0.00 77 1019.0
20260906080114 17 0 0.0 1.6 0.00 0.00 0.00 75 1019.2
20260906075556 17 0 0.0 3.2 0.00 0.00 0.00 74 1019.3
20260906075059 17 36 0.0 4.8 0.00 0.00 0.00 73 1019.2
20260906074603 17 36 3.2 4.8 0.00 0.00 0.00 72 1019.2
20260906074100 17 25 1.6 8.0 0.00 0.00 0.00 70 1019.2
20260906073559 17 44 4.8 8.0 0.00 0.00 0.00 69 1019.3
20260906073104 17 36 1.6 4.8 0.00 0.00 0.00 68 1019.1
20260906072600 18 32 3.2 4.8 0.00 0.00 0.00 68 1019.3
20260906072100 18 0 0.0 0.0 0.00 0.00 0.00 68 1019.3
20260906071613 18 0 0.0 0.0 0.00 0.00 0.00 70 1019.1
20260906071057 18 0 0.0 0.0 0.00 0.00 0.00 73 1019.1
20260906070600 18 0 0.0 0.0 0.00 0.00 0.00 73 1019.1
20260906070100 18 0 0.0 0.0 0.00 0.00 0.00 72 1019.0
20260906065600 18 0 0.0 0.0 0.00 0.00 0.00 71 1018.9
20260906065101 19 0 0.0 0.0 0.00 0.00 0.00 69 1018.8
20260906064603 19 0 0.0 1.6 0.00 0.00 0.00 69 1018.8
20260906064059 19 0 0.0 1.6 0.00 0.00 0.00 67 1018.6
20260906063600 20 0 0.0 3.2 0.00 0.00 0.00 65 1018.6
20260906063105 20 0 0.0 3.2 0.00 0.00 0.00 64 1018.7
20260906062601 20 9 0.0 8.0 0.00 0.00 0.00 64 1018.7
20260906062100 20 9 1.6 8.0 0.00 0.00 0.00 64 1018.7
20260906061606 20 1 0.0 1.6 0.00 0.00 0.00 64 1018.9
20260906061100 20 0 0.0 0.0 0.00 0.00 0.00 62 1018.9
20260906060559 20 0 0.0 0.0 0.00 0.00 0.00 60 1019.1
20260906060151 21 0 0.0 0.0 0.00 0.00 0.00 60 1019.2
20260906055559 21 0 0.0 4.8 0.00 0.00 0.00 59 1018.9
20260906055100 21 0 0.0 6.4 0.00 0.00 0.00 59 1018.9
20260906054616 21 304 3.2 6.4 0.00 0.00 0.00 60 1019.1
20260906054059 21 236 0.0 1.6 0.00 0.00 0.00 61 1019.3
20260906053556 21 0 0.0 1.6 0.00 0.00 0.00 60 1019.4
20260906053102 21 0 0.0 0.0 0.00 0.00 0.00 60 1019.3
20260906052559 21 0 0.0 3.2 0.00 0.00 0.00 60 1019.2
20260906052102 21 0 0.0 4.8 0.00 0.00 0.00 60 1019.3
20260906051605 21 0 1.6 4.8 0.00 0.00 0.00 60 1019.3
20260906051100 21 235 3.2 4.8 0.00 0.00 0.00 60 1019.4
20260906050601 21 235 3.2 3.2 0.00 0.00 0.00 59 1018.9
20260906050114 21 0 0.0 6.4 0.00 0.00 0.00 58 1018.7
20260906045556 21 51 3.2 6.4 0.00 0.00 0.00 58 1018.6
20260906045100 21 50 4.8 6.4 0.00 0.00 0.00 58 1018.5
20260906044603 21 54 3.2 8.0 0.00 0.00 0.00 57 1018.6
20260906044102 22 56 4.8 8.0 0.00 0.00 0.00 57 1018.5
20260906043559 22 51 4.8 6.4 0.00 0.00 0.00 57 1018.6
20260906043110 22 52 4.8 9.7 0.00 0.00 0.00 56 1018.6
20260906042559 22 68 4.8 9.7 0.00 0.00 0.00 56 1018.6
20260906042059 22 68 6.4 11.3 0.00 0.00 0.00 55 1018.4
20260906041559 22 49 6.4 11.3 0.00 0.00 0.00 54 1018.3
20260906041100 22 46 6.4 11.3 0.00 0.00 0.00 54 1018.3
20260906040600 22 41 8.0 11.3 0.00 0.00 0.00 53 1018.2
20260906035559 22 30 6.4 9.7 0.00 0.00 0.00 50 1018.2
20260906035101 22 38 4.8 12.9 0.00 0.00 0.00 48 1018.3
20260906034605 23 47 6.4 12.9 0.00 0.00 0.00 44 1018.3
20260906034059 23 33 9.7 14.5 0.00 0.00 0.00 43 1018.4
20260906033559 23 25 8.0 14.5 0.00 0.00 0.00 42 1018.3
20260906033104 24 11 9.7 16.1 0.00 0.00 0.00 41 1018.1
20260906032559 24 15 9.7 16.1 0.00 0.00 0.00 40 1018.1
20260906032059 24 22 9.7 14.5 0.00 0.00 0.00 40 1018.0
20260906031625 25 15 8.0 16.1 0.00 0.00 0.00 40 1017.9
20260906031059 24 345 9.7 16.1 0.00 0.00 0.00 40 1017.9
20260906030600 25 14 11.3 16.1 0.00 0.00 0.00 40 1017.7
20260906030104 25 345 11.3 16.1 0.00 0.00 0.00 40 1017.7
20260906025556 25 14 9.7 16.1 0.00 0.00 0.00 40 1017.7
20260906025100 25 16 4.8 17.7 0.00 0.00 0.00 40 1017.6
20260906024605 25 325 3.2 17.7 0.00 0.00 0.00 40 1017.6
20260906024101 25 1 9.7 16.1 0.00 0.00 0.00 39 1017.6
20260906023601 25 1 8.0 14.5 0.00 0.00 0.00 39 1017.6
20260906023112 25 6 3.2 8.0 0.00 0.00 0.00 38 1017.4
20260906022602 25 308 3.2 8.0 0.00 0.00 0.00 38 1017.4
20260906022059 25 349 3.2 9.7 0.00 0.00 0.00 38 1017.5
20260906021610 25 309 4.8 11.3 0.00 0.00 0.00 38 1017.4
20260906021059 25 310 4.8 11.3 0.00 0.00 0.00 38 1017.2
20260906020600 26 341 4.8 9.7 0.00 0.00 0.00 38 1017.1
20260906020104 26 307 3.2 9.7 0.00 0.00 0.00 37 1016.9
20260906015559 26 323 4.8 9.7 0.00 0.00 0.00 37 1017.1
20260906015059 26 326 4.8 8.0 0.00 0.00 0.00 36 1017.0
20260906014606 26 315 4.8 8.0 0.00 0.00 0.00 36 1017.1
20260906014059 26 324 4.8 9.7 0.00 0.00 0.00 36 1017.0
20260906013600 27 324 4.8 12.9 0.00 0.00 0.00 35 1017.0
20260906013101 27 302 6.4 12.9 0.00 0.00 0.00 34 1016.8
20260906012600 27 317 3.2 8.0 0.00 0.00 0.00 34 1016.9
20260906012059 27 322 4.8 8.0 0.00 0.00 0.00 34 1016.9
20260906011612 28 307 3.2 8.0 0.00 0.00 0.00 33 1016.9
20260906011100 28 322 4.8 6.4 0.00 0.00 0.00 32 1016.9
20260906010600 28 329 0.0 1.6 0.00 0.00 0.00 31 1016.8
20260906010114 28 0 0.0 3.2 0.00 0.00 0.00 32 1016.7
20260906005600 28 0 0.0 4.8 0.00 0.00 0.00 32 1016.7
20260906005059 29 317 1.6 4.8 0.00 0.00 0.00 32 1016.6
20260906004609 29 318 3.2 4.8 0.00 0.00 0.00 31 1016.6
20260906004059 30 321 1.6 3.2 0.00 0.00 0.00 31 1016.6
20260906003600 30 0 0.0 3.2 0.00 0.00 0.00 30 1016.6
20260906003108 31 0 0.0 4.8 0.00 0.00 0.00 29 1016.7
20260906002559 31 321 1.6 4.8 0.00 0.00 0.00 28 1016.5
20260906002100 31 321 3.2 4.8 0.00 0.00 0.00 27 1016.5
20260906001611 31 314 3.2 6.4 0.00 0.00 0.00 27 1016.4
20260906001059 31 309 0.0 9.7 0.00 0.00 0.00 28 1016.5
20260906000600 32 18 3.2 11.3 0.00 0.00 0.00 29 1016.4
20260906000110 32 11 6.4 11.3 0.00 0.00 0.00 29 1016.4
20260905235559 32 36 8.0 11.3 0.00 0.00 0.00 28 1016.4
20260905235101 32 58 6.4 11.3 0.00 0.00 0.00 27 1016.4
20260905234604 32 78 6.4 12.9 0.00 0.00 0.00 28 1016.4
20260905234104 32 70 8.0 12.9 0.00 0.00 0.00 28 1016.3
20260905233601 32 71 3.2 11.3 0.00 0.00 0.00 28 1016.3
20260905233106 32 62 3.2 11.3 0.00 0.00 0.00 28 1016.3
20260905232600 33 44 3.2 12.9 0.00 0.00 0.00 27 1016.1
20260905232100 33 44 6.4 14.5 0.00 0.00 0.00 27 1016.3
20260905231619 33 24 8.0 20.9 0.00 0.00 0.00 28 1016.3
20260905231059 33 18 8.0 20.9 0.00 0.00 0.00 28 1016.3
20260905230601 33 15 9.7 20.9 0.00 0.00 0.00 27 1016.2
20260905230108 33 54 9.7 19.3 0.00 0.00 0.00 29 1016.1
20260905225600 33 44 3.2 16.1 0.00 0.00 0.00 28 1016.0
20260905225058 33 75 9.7 16.1 0.00 0.00 0.00 26 1016.1
20260905224602 33 30 4.8 12.9 0.00 0.00 0.00 27 1016.2
20260905224101 33 46 1.6 9.7 0.00 0.00 0.00 25 1016.1
20260905223600 33 73 4.8 19.3 0.00 0.00 0.00 24 1016.0
20260905223102 33 27 4.8 19.3 0.00 0.00 0.00 23 1016.1
20260905222559 33 25 0.0 9.7 0.00 0.00 0.00 25 1016.0
20260905222100 33 96 4.8 9.7 0.00 0.00 0.00 22 1016.1
20260905221633 33 25 1.6 8.0 0.00 0.00 0.00 22 1016.2
20260905221100 33 126 1.6 8.0 0.00 0.00 0.00 22 1016.2
20260905220600 34 330 4.8 8.0 0.00 0.00 0.00 21 1016.3
20260905220106 34 293 3.2 12.9 0.00 0.00 0.00 22 1016.3
20260905215600 34 293 3.2 12.9 0.00 0.00 0.00 22 1016.4
20260905215101 34 288 4.8 12.9 0.00 0.00 0.00 22 1016.5